Regional Weather Roundup
Issued by NWS Portland, ME

Current Version | Previous Version | Text Only | Print | Product List | Glossary Off
Versions: 1 2 3 4 5 6 7 8 9 10 11 12 13 14 15 16 17 18 19 20 21 22 23 24 25 26 27 28 29 30 31 32 33 34 35 36 37 38 39 40 41 42 43 44 45 46 47 48 49 50
000 ASUS41 KGYX 170010 RWRGYX WEATHER ROUNDUP FOR MAINE AND NEW HAMPSHIRE NATIONAL WEATHER SERVICE GRAY ME 800 PM EDT WED AUG 16 2017 MEZ002-005-006-010-012-015-018-020-021-024-026-027-029-170100- MAINE CITY SKY/WX TMP DP RH WIND PRES REMARKS PORTLAND CLEAR 69 41 36 VRB6 29.95R 6HR MIN TEMP: 69; 6HR MAX TEMP: 82; SANFORD CLEAR 66 48 52 CALM 29.97R BAR HARBOR CLEAR 67 43 41 NW6 29.91 WISCASSET CLEAR 69 41 36 CALM 29.95R 6HR MIN TEMP: 69; 6HR MAX TEMP: 81; ROCKLAND CLEAR 67 47 48 CALM 29.93R FRYEBURG CLEAR 67 42 40 W6 29.97R 6HR MIN TEMP: 67; 6HR MAX TEMP: 78; LEWISTONAUBURN CLEAR 68 44 42 N6 29.96R AUGUSTA CLEAR 67 43 41 NW9 29.96R 6HR MIN TEMP: 67; 6HR MAX TEMP: 77; WATERVILLE CLEAR 64 48 56 NW6 29.93R BANGOR PTCLDY 65 46 50 NW8 29.93R 6HR MIN TEMP: 65; 6HR MAX TEMP: 78; GREENVILLE N/A 57 46 66 NW9 29.93R 6HR MIN TEMP: 57; 6HR MAX TEMP: 67; MILLINOCKET CLEAR 63 44 50 W8 29.92R 6HR MIN TEMP: 63; 6HR MAX TEMP: 73; HOULTON CLEAR 62 43 49 NW5 29.87R 6HR MIN TEMP: 62; 6HR MAX TEMP: 73; PRESQUE ISLE CLEAR 60 42 51 NW7 29.89R 6HR MIN TEMP: 60; 6HR MAX TEMP: 69; FRENCHVILLE CLEAR 54 39 57 NW10 29.89R 6HR MIN TEMP: 54; 6HR MAX TEMP: 64; CARIBOU MOCLDY 59 44 57 N6 29.88R 6HR MIN TEMP: 59; 6HR MAX TEMP: 68; $$ NHZ002-005-008-009-011-012-014-170100- NEW HAMPSHIRE CITY SKY/WX TMP DP RH WIND PRES REMARKS PORTSMOUTH PTCLDY 70 49 48 NW6 29.95R ROCHESTER CLEAR 70 45 40 NW8 29.96R 6HR MIN TEMP: 70; 6HR MAX TEMP: 80; NASHUA CLEAR 72 58 61 NW5 29.98R MANCHESTER PTCLDY 74 46 36 NW9G16 29.97R 6HR MIN TEMP: 74; 6HR MAX TEMP: 83; CONCORD CLEAR 69 48 47 NW6 29.98R 6HR MIN TEMP: 69; 6HR MAX TEMP: 82; LACONIA CLEAR 67 48 50 W6 29.99R PLYMOUTH FAIR 64 50 61 CALM 29.99R BERLIN PTCLDY 56 49 77 CALM 30.00R 6HR MIN TEMP: 56; 6HR MAX TEMP: 72; WHITEFIELD CLEAR 59 47 64 CALM 30.02R 6HR MIN TEMP: 59; 6HR MAX TEMP: 72; JAFFREY CLEAR 67 57 70 CALM 30.01R 6HR MIN TEMP: 67; 6HR MAX TEMP: 79; KEENE N/A N/A N/A N/A MISG N/A LEBANON CLEAR 62 55 77 S3 30.00R 6HR MIN TEMP: 62; 6HR MAX TEMP: 78; MT WASHINGTON MOCLDY 39 37 93 NW48 N/A 6HR MIN TEMP: 38; 6HR MAX TEMP: 44; $$ VTZ005-007-008-170100- VERMONT CITY SKY/WX TMP DP RH WIND PRES REMARKS ST JOHNSBURY N/A 63 50 62 MISG 30.00R MONTPELIER CLEAR 60 49 66 NW7 30.06R BURLINGTON PTCLDY 68 49 50 N5 30.02R $$ MAZ007-012-024-CTZ003-RIZ002-NYZ038-NYZ072-170100- SOUTHERN NEW ENGLAND AND NY CITY SKY/WX TMP DP RH WIND PRES REMARKS BOSTON PTCLDY 77 55 46 N9 29.96R WORCESTER CLEAR 70 56 61 NW5 30.00R NANTUCKET CLEAR 67 64 90 SW8 29.96R PROVIDENCE PTCLDY 78 60 53 NW7 29.96R HARTFORD PTCLDY 74 61 63 NW6 29.97R ALBANY MOCLDY 74 52 46 N6G17 30.00R NEW YORK CITY PTCLDY 82 62 50 N6 29.96R $$ ANZ081-ANZ082-ANZ150-NHZ014-MEZ023>029-170100- COASTAL MARINE OBSERVATIONS STATION/POSITION TIME TEMP WIND PRES WAVE AIR SEA DIR/SP/G HT/PER (UTC) (F) (DEG/KT/KT) (MB) (FT/S) MOUNT DESERT ROC 2300 65 1012.0R MATINICUS ROCK 2300 66 290/ 12/ 13 1011.9R ISLE OF SHOALS 2300 75 310/ 11/ 12 1013.2R JEFFREYS LEDGE 2306 69 N/A 3/13 CASHES LEDGE BUO 2250 72 69 1012.3 4/12 GEORGES BANK BUO 2250 64 64 1010.5 8/11 $$ .............KEY.............. WCI - WIND CHILL TC - TEMPERATURE IN CELSIUS VSB - VISIBILITY IN MILES HX - HEAT INDEX FAIR- INDICATES FEW OR NO CLOUDS BELOW 12,000 FT, WITH NO SIGNIFICANT WEATHER AND/OR OBSTRUCTIONS TO VISIBILITY.

USA.gov is the U.S. government's official web portal to all federal, state and local government web resources and services.